Powrót do katalogu

COSMOS 2008

AktywnyMilitariaLEO
NORAD 19902·PAYLOAD·🇷🇺 Russia

Wystrzelony Mar 24, 1989 z Plesetsk Cosmodrome

Loading…

Następne Przeloty (najbliższe 24 godziny)

TLE

ŚwieżeSource: Space-Track

Epoka: Sep 14, 2026, 12:38 UTC

1 19902U 89025A   26257.52656551 -.00000013  00000-0  20301-4 0  9997
2 19902  74.0074 277.5994 0049270 131.7476 302.3566 12.57871726720784

Śledź COSMOS 2008 w czasie rzeczywistym z AllMySat

Download on the App Store